ニート彗星

334P/NEAT (2000)

English version
Home page
Updated on February 27, 2016

---------------------------------------------------------------------

・ プロフィール

符号 334P/2001 F1
発見日 2001年3月24日
発見光度 19.7等
発見者 Near-Earth-Asteroid Tracking Team (Jet Propulsion Laboratory)

・ 軌道要素

Epoch 2000 Dec. 2.0 TT = JDT 2451880.5
T 2000 Nov. 22.46775 TT                                 MPCW
q   4.1532623            (2000.0)            P               Q
n   0.06023670     Peri.   80.79210     -0.93961266     -0.10223937
a   6.4450840      Node    92.83342     -0.02407551     -0.93222537
e   0.3555922      Incl.   19.08748     +0.34139190     -0.34713538
P  16.4
From 139 observations 2001 Feb. 24-2016 Jan. 10, mean residual 0".6.

・ 星図

・ 光度変化

        m1 = 9.5 + 5 logΔ + 10.0 log r

---------------------------------------------------------------------

軌道要素はM.P.E.C. 2016-A105に掲載されたものです。
星図は StellaNavigator Ver.2.0 for Windows (アストロアーツ 編著 / アスキー出版局刊) で作成したものです。
光度グラフはComet for Windowsで作成したものです。

---------------------------------------------------------------------

Copyright(C) Seiichi Yoshida (comet@aerith.net). All rights reserved.